West Bend, WI

10:23 AM CDT on April 21, 2018 (GMT -0500)
West Bend Municipal

Weather History for KETB - November, 2013

Change the Weather History Date:

Wednesday, November 27, 2013

  Actual Average Record
Temperature  
Mean Temperature 18 °F -  
Max Temperature 26 °F 38 °F 64 °F (1990)
Min Temperature 10 °F 25 °F -1 °F (1930)
Degree Days  
Heating Degree Days 47    
Moisture  
Dew Point 9 °F    
Average Humidity 69    
Maximum Humidity 86    
Minimum Humidity 50    
Precipitation  
Precipitation 0.00 in - - ()
Sea Level Pressure  
Sea Level Pressure 30.17 in    
Wind  
Wind Speed 8 mph (WNW)    
Max Wind Speed 15 mph    
Max Gust Speed 21 mph    
Visibility 9 miles    
Events Snow    
Averages and records for this station are not official NWS values.
T = Trace of Precipitation, MM = Missing Value Source: NWS Daily Summary

Daily Weather History Graph

Daily Weather History Graph

Search for Another Location

Airport or City:

Astronomy

Nov. 27, 2013 Rise Set
Actual Time 7:01 AM CST 4:19 PM CST
Civil Twilight 6:29 AM CST 4:50 PM CST
Nautical Twilight 5:53 AM CST 5:26 PM CST
Astronomical Twilight 5:19 AM CST 6:00 PM CST
Moon 12:53 AM CST (11/27) 1:05 PM CST (11/27)
Length of Visible Light 10h 21m
Length of Day
9h 18m
Waning Crescent, 31% of the Moon is Illuminated
Nov 27
Waning Crescent
Dec 2
New
Dec 9
First Quarter
Dec 17
Full
Dec 25
Last Quarter

Hourly Weather History & Observations

Time (CST) Temp. Windchill Dew Point Humidity Pressure Visibility Wind Dir Wind Speed Gust Speed Precip Events Conditions
12:15 AM 12.2 °F -0.2 °F 3.2 °F 67% 30.15 in 10.0 mi WNW 9.2 mph - N/A   Clear
12:35 AM 12.2 °F 0.7 °F 3.2 °F 67% 30.15 in 10.0 mi WNW 8.1 mph - N/A   Clear
12:55 AM 12.2 °F 1.7 °F 3.2 °F 67% 30.15 in 10.0 mi WNW 6.9 mph - N/A   Clear
1:15 AM 12.2 °F -1.0 °F 3.2 °F 67% 30.14 in 10.0 mi WNW 10.4 mph - N/A   Clear
1:35 AM 12.2 °F -0.2 °F 3.2 °F 67% 30.14 in 10.0 mi WNW 9.2 mph - N/A   Clear
1:55 AM 12.2 °F -1.0 °F 3.2 °F 67% 30.15 in 10.0 mi WNW 10.4 mph - N/A   Clear
2:15 AM 10.4 °F -4.1 °F 3.2 °F 73% 30.14 in 10.0 mi NW 11.5 mph - N/A   Clear
2:35 AM 10.4 °F -1.5 °F 3.2 °F 73% 30.15 in 10.0 mi NW 8.1 mph - N/A   Clear
2:55 AM 10.4 °F -4.1 °F 5.0 °F 79% 30.14 in 10.0 mi NW 11.5 mph - N/A   Clear
3:15 AM 10.4 °F -1.5 °F 5.0 °F 79% 30.14 in 10.0 mi WNW 8.1 mph - N/A   Clear
3:35 AM 10.4 °F -0.4 °F 5.0 °F 79% 30.15 in 10.0 mi WNW 6.9 mph - N/A   Clear
3:55 AM 10.4 °F 0.8 °F 5.0 °F 79% 30.15 in 10.0 mi WNW 5.8 mph - N/A   Clear
4:15 AM 10.4 °F -1.5 °F 5.0 °F 79% 30.15 in 10.0 mi WNW 8.1 mph - N/A   Clear
4:35 AM 10.4 °F -1.5 °F 5.0 °F 79% 30.16 in 10.0 mi WNW 8.1 mph - N/A   Clear
4:55 AM 10.4 °F -4.1 °F 5.0 °F 79% 30.16 in 10.0 mi WNW 11.5 mph - N/A   Clear
5:15 AM 10.4 °F -4.1 °F 5.0 °F 79% 30.16 in 10.0 mi WNW 11.5 mph 16.1 mph N/A   Clear
5:35 AM 10.4 °F -1.5 °F 5.0 °F 79% 30.17 in 10.0 mi WNW 8.1 mph - N/A   Clear
5:55 AM 10.4 °F -1.5 °F 5.0 °F 79% 30.17 in 10.0 mi WNW 8.1 mph - N/A   Clear
6:15 AM 10.4 °F -3.3 °F 5.0 °F 79% 30.17 in 10.0 mi WNW 10.4 mph - N/A   Clear
6:35 AM 10.4 °F -4.1 °F 5.0 °F 79% 30.17 in 10.0 mi WNW 11.5 mph 16.1 mph N/A   Clear
6:55 AM 10.4 °F -3.3 °F 5.0 °F 79% 30.18 in 10.0 mi NW 10.4 mph 17.3 mph N/A   Clear
7:15 AM 10.4 °F -0.4 °F 5.0 °F 79% 30.18 in 10.0 mi NW 6.9 mph - N/A   Clear
7:35 AM 12.2 °F -0.2 °F 5.0 °F 73% 30.18 in 10.0 mi WNW 9.2 mph 16.1 mph N/A   Clear
7:55 AM 12.2 °F 0.7 °F 6.8 °F 79% 30.19 in 10.0 mi NW 8.1 mph - N/A   Clear
8:15 AM 14.0 °F 2.0 °F 8.6 °F 79% 30.19 in 10.0 mi NW 9.2 mph - N/A   Clear
8:35 AM 15.8 °F 4.2 °F 8.6 °F 73% 30.20 in 10.0 mi NW 9.2 mph - N/A   Clear
8:55 AM 17.6 °F 4.3 °F 8.6 °F 68% 30.20 in 10.0 mi NW 12.7 mph - N/A   Clear
9:15 AM 17.6 °F 6.4 °F 10.4 °F 73% 30.20 in 10.0 mi WNW 9.2 mph 16.1 mph N/A   Clear
9:35 AM 19.4 °F 8.6 °F 10.4 °F 68% 30.19 in 10.0 mi NW 9.2 mph 17.3 mph N/A   Clear
9:55 AM 19.4 °F 6.6 °F 10.4 °F 68% 30.19 in 10.0 mi NW 12.7 mph 19.6 mph N/A   Clear
10:15 AM 21.2 °F 7.8 °F 10.4 °F 63% 30.19 in 10.0 mi NW 15.0 mph 18.4 mph N/A   Clear
10:35 AM 21.2 °F 8.3 °F 12.2 °F 68% 30.19 in 10.0 mi NW 13.8 mph 20.7 mph N/A   Clear
10:55 AM 21.2 °F 8.9 °F 12.2 °F 68% 30.18 in 10.0 mi WNW 12.7 mph 17.3 mph N/A   Clear
11:15 AM 23.0 °F 11.1 °F 12.2 °F 63% 30.17 in 10.0 mi NW 12.7 mph 18.4 mph N/A   Scattered Clouds
11:35 AM 23.0 °F 12.4 °F 12.2 °F 63% 30.17 in 10.0 mi NW 10.4 mph 18.4 mph N/A   Clear
11:55 AM 24.8 °F 14.6 °F 12.2 °F 59% 30.17 in 10.0 mi NNW 10.4 mph - N/A   Scattered Clouds
12:15 PM 24.8 °F 15.3 °F 12.2 °F 59% 30.16 in 10.0 mi NNW 9.2 mph 19.6 mph N/A   Scattered Clouds
12:35 PM 26.6 °F 16.2 °F 12.2 °F 55% 30.16 in 10.0 mi WNW 11.5 mph 17.3 mph N/A   Scattered Clouds
12:55 PM 26.6 °F 15.7 °F 12.2 °F 55% 30.16 in 10.0 mi WNW 12.7 mph 16.1 mph N/A   Mostly Cloudy
1:15 PM 26.6 °F 15.7 °F 12.2 °F 55% 30.15 in 10.0 mi NW 12.7 mph - N/A   Scattered Clouds
1:35 PM 26.6 °F 17.5 °F 10.4 °F 51% 30.15 in 10.0 mi NW 9.2 mph 16.1 mph N/A   Clear
1:55 PM 26.6 °F 17.5 °F 10.4 °F 51% 30.15 in 10.0 mi NNW 9.2 mph 16.1 mph N/A   Clear
2:15 PM 26.6 °F 16.2 °F 10.4 °F 51% 30.15 in 10.0 mi WNW 11.5 mph - N/A   Scattered Clouds
2:35 PM 26.6 °F 16.2 °F 10.4 °F 51% 30.16 in 10.0 mi NW 11.5 mph - N/A   Scattered Clouds
2:55 PM 26.6 °F 18.2 °F 10.4 °F 51% 30.16 in 10.0 mi NW 8.1 mph - N/A   Scattered Clouds
3:15 PM 26.6 °F 17.5 °F 10.4 °F 51% 30.17 in 10.0 mi NW 9.2 mph - N/A   Clear
3:35 PM 24.8 °F 16.1 °F 8.6 °F 50% 30.17 in 10.0 mi WNW 8.1 mph - N/A   Clear
3:55 PM 23.0 °F 14.7 °F 8.6 °F 54% 30.17 in 10.0 mi NW 6.9 mph - N/A   Clear
4:15 PM 23.0 °F 18.4 °F 8.6 °F 54% 30.17 in 10.0 mi NW 3.5 mph - N/A   Clear
4:35 PM 23.0 °F - 8.6 °F 54% 30.18 in 10.0 mi Calm Calm - N/A   Clear
4:55 PM 21.2 °F - 8.6 °F 58% 30.18 in 10.0 mi Calm Calm - N/A   Clear
5:15 PM 21.2 °F - 12.2 °F 68% 30.18 in 10.0 mi Calm Calm - N/A   Clear
5:35 PM 19.4 °F - 8.6 °F 63% 30.19 in 10.0 mi Calm Calm - N/A   Scattered Clouds
5:55 PM 19.4 °F - 10.4 °F 68% 30.19 in 10.0 mi Calm Calm - N/A   Scattered Clouds
6:15 PM 19.4 °F - 12.2 °F 74% 30.19 in 10.0 mi Calm Calm - N/A   Mostly Cloudy
6:35 PM 21.2 °F - 12.2 °F 68% 30.19 in 10.0 mi Calm Calm - N/A   Overcast
6:55 PM 21.2 °F - 12.2 °F 68% 30.19 in 10.0 mi Calm Calm - N/A   Overcast
7:15 PM 21.2 °F - 12.2 °F 68% 30.18 in 10.0 mi Calm Calm - N/A   Overcast
7:35 PM 21.2 °F - 12.2 °F 68% 30.18 in 10.0 mi Calm Calm - N/A   Overcast
7:55 PM 21.2 °F - 12.2 °F 68% 30.18 in 10.0 mi Calm Calm - N/A   Overcast
8:15 PM 21.2 °F - 12.2 °F 68% 30.18 in 10.0 mi Calm Calm - N/A   Overcast
8:35 PM 21.2 °F - 12.2 °F 68% 30.19 in 10.0 mi Calm Calm - N/A   Overcast
8:55 PM 21.2 °F - 12.2 °F 68% 30.19 in 10.0 mi Calm Calm - N/A   Overcast
9:15 PM 23.0 °F 18.4 °F 12.2 °F 63% 30.19 in 10.0 mi SW 3.5 mph - N/A   Overcast
9:35 PM 23.0 °F 17.0 °F 14.0 °F 68% 30.20 in 10.0 mi SSW 4.6 mph - N/A Snow Light Snow
9:55 PM 21.2 °F 14.9 °F 15.8 °F 80% 30.20 in 5.0 mi SW 4.6 mph - N/A Snow Light Snow
10:15 PM 21.2 °F 13.6 °F 17.6 °F 86% 30.20 in 1.8 mi SW 5.8 mph - N/A Snow Light Snow
10:35 PM 21.2 °F 14.9 °F 17.6 °F 86% 30.21 in 2.0 mi SW 4.6 mph - N/A Snow Light Snow
10:55 PM 21.2 °F 16.4 °F 17.6 °F 86% 30.21 in 1.8 mi SW 3.5 mph - N/A Snow Light Snow
11:15 PM 21.2 °F - 17.6 °F 86% 30.21 in 2.5 mi Calm Calm - N/A Snow Light Snow
11:35 PM 21.2 °F - 17.6 °F 86% 30.20 in 5.0 mi Calm Calm - N/A Snow Light Snow
11:55 PM 21.2 °F - 17.6 °F 86% 30.20 in 10.0 mi Calm Calm - N/A   Overcast